Nantucket, MA

8:52 PM EST on February 06, 2016 (GMT -0500)
Nantucket Memorial

Weather History for KACK - March, 2013

Change the Weather History Date:

Friday, March 29, 2013

  Actual Average Record
Temperature  
Mean Temperature 46 °F -  
Max Temperature 54 °F 46 °F 57 °F (1968)
Min Temperature 39 °F 33 °F 19 °F (1974)
Degree Days  
Heating Degree Days 19    
Moisture  
Dew Point 35 °F    
Average Humidity 67    
Maximum Humidity 83    
Minimum Humidity 47    
Precipitation  
Precipitation 0.00 in - - ()
Sea Level Pressure  
Sea Level Pressure 30.02 in    
Wind  
Wind Speed 10 mph (West)    
Max Wind Speed 16 mph    
Max Gust Speed 23 mph    
Visibility 10 miles    
Events      
Averages and records for this station are not official NWS values.
T = Trace of Precipitation, MM = Missing Value Source: NWS Daily Summary

Daily Weather History Graph

Daily Weather History Graph

Search for Another Location

Airport or City:

Trip Planner

Search our weather history database for the weather conditions in past years. The results will help you decide how hot, cold, wet, or windy it might be!

Date:

Astronomy

Mar. 29, 2013 Rise Set
Actual Time 6:28 AM EDT 7:02 PM EDT
Civil Twilight 6:00 AM EDT 7:30 PM EDT
Nautical Twilight 5:27 AM EDT 8:02 PM EDT
Astronomical Twilight 4:54 AM EDT 8:36 PM EDT
Moon 10:00 PM EDT (3/29) 7:32 AM EDT (3/29)
Length of Visible Light 13h 29m
Length of Day
12h 34m
Waning Gibbous, 93% of the Moon is Illuminated
Mar 29
Waning Gibbous
Apr 3
Last Quarter
Apr 10
New
Apr 18
First Quarter
Apr 25
Full

Hourly Weather History & Observations

Time (EDT) Temp. Windchill Dew Point Humidity Pressure Visibility Wind Dir Wind Speed Gust Speed Precip Events Conditions
12:53 AM 42.1 °F 36.6 °F 33.1 °F 70% 30.02 in 10.0 mi West 9.2 mph - N/A   Overcast
1:53 AM 41.0 °F 35.2 °F 34.0 °F 76% 30.01 in 10.0 mi West 9.2 mph - N/A   Overcast
2:53 AM 39.9 °F 35.1 °F 34.0 °F 79% 30.01 in 10.0 mi WNW 6.9 mph - N/A   Overcast
3:53 AM 41.0 °F 35.8 °F 35.1 °F 79% 30.00 in 10.0 mi WNW 8.1 mph - N/A   Overcast
4:53 AM 41.0 °F 35.2 °F 34.0 °F 76% 30.01 in 10.0 mi NNW 9.2 mph - N/A   Clear
5:53 AM 39.9 °F 33.9 °F 34.0 °F 79% 30.01 in 10.0 mi NW 9.2 mph - N/A   Clear
6:53 AM 39.9 °F 33.4 °F 35.1 °F 83% 30.03 in 10.0 mi NW 10.4 mph - N/A   Clear
7:53 AM 44.1 °F 38.6 °F 35.1 °F 71% 30.03 in 10.0 mi NW 10.4 mph - N/A   Clear
8:53 AM 46.0 °F 39.9 °F 34.0 °F 63% 30.04 in 10.0 mi NW 13.8 mph - N/A   Clear
9:53 AM 48.9 °F - 33.1 °F 54% 30.04 in 10.0 mi NW 9.2 mph - N/A   Clear
10:53 AM 51.1 °F - 33.1 °F 50% 30.04 in 10.0 mi NW 9.2 mph 16.1 mph N/A   Clear
11:53 AM 53.1 °F - 34.0 °F 48% 30.04 in 10.0 mi NW 9.2 mph - N/A   Clear
11:57 AM 53.6 °F - 33.8 °F 47% 30.03 in 10.0 mi North 11.5 mph - N/A   Clear
12:53 PM 52.0 °F - 37.0 °F 57% 30.03 in 10.0 mi SW 15.0 mph - N/A   Clear
1:02 PM 51.8 °F - 37.4 °F 58% 30.03 in 10.0 mi SW 13.8 mph - N/A   Clear
1:53 PM 51.1 °F - 37.0 °F 59% 30.01 in 10.0 mi WSW 11.5 mph - N/A   Clear
2:53 PM 50.0 °F - 37.0 °F 61% 30.01 in 10.0 mi SW 10.4 mph - N/A   Clear
3:53 PM 52.0 °F - 35.1 °F 53% 30.00 in 10.0 mi West 16.1 mph 21.9 mph N/A   Clear
4:53 PM 50.0 °F - 33.1 °F 52% 30.01 in 10.0 mi West 16.1 mph 23.0 mph N/A   Mostly Cloudy
5:53 PM 46.9 °F - 34.0 °F 61% 30.01 in 10.0 mi West 13.8 mph - N/A   Clear
6:53 PM 44.1 °F 37.7 °F 35.1 °F 71% 30.01 in 10.0 mi West 12.7 mph - N/A   Partly Cloudy
7:53 PM 41.0 °F 35.8 °F 36.0 °F 82% 30.02 in 10.0 mi WSW 8.1 mph - N/A   Clear
8:53 PM 41.0 °F 35.8 °F 36.0 °F 82% 30.03 in 10.0 mi WSW 8.1 mph - N/A   Clear
9:53 PM 43.0 °F 36.4 °F 36.0 °F 76% 30.03 in 10.0 mi WSW 12.7 mph - N/A   Mostly Cloudy
10:53 PM 43.0 °F 37.7 °F 37.0 °F 80% 30.03 in 10.0 mi West 9.2 mph - N/A   Overcast
11:53 PM 41.0 °F 35.8 °F 36.0 °F 82% 30.02 in 10.0 mi West 8.1 mph - N/A   Partly Cloudy